Weather History for Detroit, MI

Change the Weather History Date:

Monday, February 25, 2013

  Actual Average Record
Temperature  
Mean Temperature 28 °F -  
Max Temperature 37 °F 34 °F 66 °F (1957)
Min Temperature 19 °F 22 °F 1 °F (1950)
Degree Days  
Heating Degree Days 37    
Moisture  
Dew Point 21 °F    
Average Humidity 74    
Maximum Humidity 96    
Minimum Humidity 52    
Precipitation  
Precipitation 0.00 in - - ()
Sea Level Pressure  
Sea Level Pressure 30.19 in    
Wind  
Wind Speed 3 mph (ESE)    
Max Wind Speed 9 mph    
Max Gust Speed -    
Visibility 10 miles    
Events      
Averages and records for this station are not official NWS values.
T = Trace of Precipitation, MM = Missing Value Source: NWS Daily Summary

Daily Weather History Graph

Daily Weather History Graph

Search for Another Location

Airport:

Trip Planner

Search our weather history database for the weather conditions in past years. The results will help you decide how hot, cold, wet, or windy it might be!

Date:

Astronomy

Feb. 25, 2013 Rise Set
Actual Time 7:13 AM EST 6:17 PM EST
Civil Twilight 6:45 AM EST 6:45 PM EST
Nautical Twilight 6:12 AM EST 7:18 PM EST
Astronomical Twilight 5:40 AM EST 7:50 PM EST
Moon 6:30 PM EST (2/25) 6:42 AM EST (2/25)
Length of Visible Light 12h 00m
Length of Day
11h 03m
Full, 100% of the Moon is Illuminated
Feb 25
Full
Feb 25
Full
Mar 4
Last Quarter
Mar 11
New
Mar 19
First Quarter

Hourly Weather History & Observations

Time (EST) Temp. Windchill Dew Point Humidity Pressure Visibility Wind Dir Wind Speed Gust Speed Precip Events Conditions
12:53 AM 23.0 °F - 21.0 °F 92% 30.17 in 10.0 mi Calm Calm - N/A   Clear
1:53 AM 21.9 °F 17.2 °F 19.9 °F 92% 30.18 in 10.0 mi WSW 3.5 mph - N/A   Clear
2:53 AM 21.0 °F - 19.0 °F 92% 30.18 in 10.0 mi Calm Calm - N/A   Clear
3:53 AM 19.0 °F - 18.0 °F 96% 30.18 in 10.0 mi Calm Calm - N/A   Clear
4:53 AM 19.4 °F - 17.6 °F 93% 30.16 in 10.0 mi Calm Calm - N/A   Clear
5:53 AM 19.9 °F - 18.0 °F 92% 30.19 in 10.0 mi Calm Calm - N/A   Clear
6:53 AM 19.0 °F - 17.1 °F 92% 30.22 in 9.0 mi Calm Calm - N/A   Clear
7:53 AM 19.9 °F - 18.0 °F 92% 30.24 in 7.0 mi Calm Calm - N/A   Clear
8:53 AM 28.0 °F - 25.0 °F 88% 30.25 in 8.0 mi Calm Calm - N/A   Clear
9:53 AM 34.0 °F - 23.0 °F 64% 30.25 in 10.0 mi Calm Calm - N/A   Clear
10:53 AM 36.0 °F 33.3 °F 23.0 °F 59% 30.23 in 10.0 mi East 3.5 mph - N/A   Clear
11:53 AM 37.9 °F 35.5 °F 21.9 °F 53% 30.25 in 10.0 mi Variable 3.5 mph - N/A   Clear
12:53 PM 37.0 °F 32.4 °F 21.0 °F 52% 30.22 in 10.0 mi East 5.8 mph - N/A   Overcast
1:53 PM 37.9 °F 32.7 °F 23.0 °F 55% 30.20 in 10.0 mi ESE 6.9 mph - N/A   Overcast
2:53 PM 37.9 °F 35.5 °F 21.9 °F 53% 30.18 in 10.0 mi SE 3.5 mph - N/A   Partly Cloudy
3:53 PM 37.9 °F 32.7 °F 24.1 °F 57% 30.19 in 10.0 mi SE 6.9 mph - N/A   Clear
4:53 PM 37.0 °F 31.6 °F 25.0 °F 62% 30.18 in 10.0 mi SE 6.9 mph - N/A   Clear
5:53 PM 35.1 °F 27.9 °F 24.1 °F 64% 30.17 in 10.0 mi ESE 9.2 mph - N/A   Clear
6:53 PM 32.0 °F 25.6 °F 24.1 °F 73% 30.18 in 10.0 mi ESE 6.9 mph - N/A   Clear
7:53 PM 30.9 °F 25.2 °F 23.0 °F 72% 30.19 in 10.0 mi ESE 5.8 mph - N/A   Clear
8:53 PM 30.9 °F 24.3 °F 21.9 °F 69% 30.17 in 10.0 mi East 6.9 mph - N/A   Clear
9:53 PM 30.9 °F 23.5 °F 21.0 °F 67% 30.14 in 10.0 mi ESE 8.1 mph - N/A   Clear
10:53 PM 30.0 °F 22.4 °F 21.0 °F 69% 30.15 in 10.0 mi ESE 8.1 mph - N/A   Clear
11:53 PM 28.9 °F 22.8 °F 21.9 °F 75% 30.15 in 10.0 mi East 5.8 mph - N/A   Clear